PST,Max TemperatureF,Mean TemperatureF,Min TemperatureF,Max Dew PointF,MeanDew PointF,Min DewpointF,Max Humidity, Mean Humidity, Min Humidity, Max Sea Level PressureIn, Mean Sea Level PressureIn, Min Sea Level PressureIn, Max VisibilityMiles, Mean VisibilityMiles, Min VisibilityMiles, Max Wind SpeedMPH, Mean Wind SpeedMPH, Max Gust SpeedMPH,PrecipitationIn, CloudCover, Events, WindDirDegrees
2013-1-1,17,16,14,13,11,10,88,84,79,30.57,30.45,30.32,1,0,0,9,9,25,0.00,,Fog-Snow,50
2013-1-2,14,14,14,11,10,10,88,85,84,30.51,30.48,30.46,0,0,0,9,8,25,0.00,,Fog-Snow,52
2013-1-3,15,14,12,11,10,9,92,84,79,30.32,30.20,30.12,6,2,1,15,11,31,0.00,8,Snow,58
2013-1-4,24,20,15,21,17,10,93,85,79,30.34,30.22,30.17,2,1,0,8,5,,0.00,8,Fog-Snow,97
2013-1-5,21,21,21,20,19,18,93,91,86,30.24,30.15,30.11,4,2,1,7,5,,0.01,8,Snow,80
2013-1-6,30,28,26,28,26,23,100,93,88,30.17,30.08,29.98,3,1,0,7,2,,0.03,8,Fog-Snow,-1
2013-1-7,35,32,28,34,31,25,96,92,86,29.94,29.89,29.84,0,0,0,12,6,25,0.01,,Fog-Snow,250
2013-1-8,37,34,30,34,31,29,93,90,83,29.95,29.86,29.79,10,5,1,6,1,,0.02,7,Rain,110
2013-1-9,,,,,,,,,,,,,,,,,,,0.00,,,-1
2013-1-10,19,19,19,18,18,18,93,93,93,29.89,29.89,29.89,2,1,0,7,7,,0.00,8,Fog,270
2013-1-11,21,18,15,18,15,11,96,88,84,30.26,30.14,29.91,10,8,2,9,5,16,0.00,4,,257
2013-1-12,15,,15,12,12,12,86,86,86,30.17,30.17,30.17,2,2,2,0,0,,0.00,8,,-1
2013-1-13,21,18,14,16,14,10,86,83,78,30.39,30.34,30.19,10,8,1,7,4,,0.00,2,,240
2013-1-14,26,24,23,23,22,19,93,89,86,30.43,30.35,30.25,6,2,0,12,9,24,0.00,8,Fog,273
2013-1-15,30,27,24,23,22,21,93,82,72,30.64,30.51,30.37,10,5,1,12,7,21,0.00,4,,240
2013-1-16,,,,,,,,,,,,,,,,,,,0.00,,,-1
2013-1-17,52,42,39,19,16,13,45,33,21,30.42,30.39,30.32,10,10,10,4,1,,0.00,0,,90
2013-1-18,48,46,45,6,-4,-14,20,13,7,30.25,30.24,30.23,10,10,10,8,5,,0.00,0,,250
2013-1-19,43,,43,-1,-1,-1,16,16,16,30.31,30.31,30.31,10,10,10,4,4,,0.00,0,,230
2013-1-20,,,,,,,,,,,,,,,,,,,,,,
2013-1-21,15,,15,12,12,12,86,86,86,30.12,30.12,30.12,7,7,7,8,8,,0.00,1,,90
2013-1-22,15,12,10,12,10,9,92,89,86,30.22,30.04,29.96,10,3,0,10,8,,0.00,6,Fog,78
2013-1-23,28,21,14,27,19,10,93,89,86,29.97,29.96,29.95,4,2,0,10,7,18,0.02,7,Fog-Snow,345
2013-1-24,28,26,24,27,23,21,93,89,85,30.19,30.10,30.04,10,5,1,13,8,22,0.04,4,Snow,80
2013-1-25,33,32,30,32,30,27,93,90,86,29.98,29.91,29.86,10,3,0,10,2,,0.00,7,Fog-Snow,275
2013-1-26,28,28,26,27,25,25,93,90,86,29.89,29.84,29.82,10,2,0,6,3,,0.00,6,Fog-Snow,90
2013-1-27,26,,26,25,25,25,93,93,93,29.85,29.85,29.85,0,0,0,7,7,,0.00,,Fog-Snow,240
2013-1-28,28,27,26,27,25,25,93,92,88,29.97,29.90,29.85,2,1,0,15,7,32,0.11,8,Fog-Snow,267
2013-1-29,33,30,28,30,29,26,96,92,87,30.26,30.15,29.99,1,0,0,17,10,36,0.19,8,Fog-Snow,261
2013-1-30,35,32,30,33,31,30,100,94,87,30.33,30.27,30.21,1,1,0,12,10,21,0.06,,Fog-Snow,268
2013-1-31,34,33,32,33,31,30,96,92,87,30.35,30.28,30.23,1,0,0,10,8,18,0.04,8,Fog-Snow,275